TimePDT,TemperatureF,Dew PointF,Humidity,Sea Level PressureIn,VisibilityMPH,Wind Direction,Wind SpeedMPH,Gust SpeedMPH,PrecipitationIn,Events,Conditions,WindDirDegrees,DateUTC
12:52 AM,53.1,44.1,71,29.75,-9999.0,NNE,3.5,-,N/A,,Unknown,30,2013-09-20 07:52:00
1:52 AM,53.1,43.0,69,29.75,-9999.0,NE,6.9,-,N/A,,Unknown,50,2013-09-20 08:52:00
2:52 AM,51.1,41.0,68,29.75,-9999.0,ENE,8.1,-,N/A,,Unknown,60,2013-09-20 09:52:00
3:52 AM,51.1,39.0,63,29.75,-9999.0,ENE,6.9,-,N/A,,Unknown,60,2013-09-20 10:52:00
4:52 AM,51.1,37.9,61,29.75,-9999.0,NE,5.8,-,N/A,,Unknown,50,2013-09-20 11:52:00
5:52 AM,48.9,37.0,64,29.77,-9999.0,NE,8.1,-,N/A,,Unknown,50,2013-09-20 12:52:00
6:52 AM,48.9,37.0,64,29.79,-9999.0,NE,5.8,-,N/A,,Unknown,40,2013-09-20 13:52:00
7:52 AM,59.0,39.9,49,29.79,-9999.0,NE,4.6,-,N/A,,Unknown,50,2013-09-20 14:52:00
8:52 AM,73.0,41.0,31,29.78,-9999.0,Calm,Calm,-,N/A,,Unknown,0,2013-09-20 15:52:00
9:52 AM,81.0,39.0,22,29.77,-9999.0,SW,3.5,-,N/A,,Unknown,220,2013-09-20 16:52:00
10:52 AM,81.0,45.0,28,29.78,-9999.0,SW,12.7,-,N/A,,Unknown,220,2013-09-20 17:52:00
11:52 AM,80.1,51.1,36,29.78,-9999.0,SSW,15.0,-,N/A,,Unknown,210,2013-09-20 18:52:00
12:52 PM,80.1,48.0,32,29.78,-9999.0,SW,16.1,-,N/A,,Unknown,220,2013-09-20 19:52:00
1:52 PM,81.0,53.1,38,29.77,-9999.0,SW,19.6,-,N/A,,Unknown,220,2013-09-20 20:52:00
2:52 PM,79.0,53.1,40,29.78,-9999.0,SW,18.4,-,N/A,,Unknown,220,2013-09-20 21:52:00
3:52 PM,77.0,55.0,47,29.77,-9999.0,SSW,17.3,-,N/A,,Unknown,210,2013-09-20 22:52:00
4:52 PM,75.0,55.0,50,29.78,-9999.0,SSW,15.0,-,N/A,,Unknown,210,2013-09-20 23:52:00
5:52 PM,71.1,55.0,57,29.78,-9999.0,SSW,13.8,-,N/A,,Unknown,210,2013-09-21 00:52:00
6:52 PM,64.9,55.0,70,29.79,-9999.0,SSW,5.8,-,N/A,,Unknown,210,2013-09-21 01:52:00
7:52 PM,62.1,54.0,75,29.80,-9999.0,SSW,5.8,-,N/A,,Unknown,200,2013-09-21 02:52:00
8:52 PM,55.9,51.1,84,29.80,-9999.0,NE,3.5,-,N/A,,Unknown,50,2013-09-21 03:52:00
9:52 PM,54.0,50.0,86,29.80,-9999.0,NE,5.8,-,N/A,,Unknown,40,2013-09-21 04:52:00
10:52 PM,54.0,48.9,83,29.80,-9999.0,Calm,Calm,-,N/A,,Unknown,0,2013-09-21 05:52:00
11:52 PM,48.0,46.0,93,29.81,-9999.0,NE,3.5,-,N/A,,Unknown,50,2013-09-21 06:52:00